Time,TemperatureF,DewpointF,PressureIn,WindDirection,WindDirectionDegrees,WindSpeedMPH,WindSpeedGustMPH,Humidity,HourlyPrecipIn,Conditions,Clouds,dailyrainin,SoftwareType,DateUTC
2013-11-01 00:23:00,46.0,38.0,29.64,North,11,5.0,9.0,74,0.00,,,0.00,,2013-11-01 05:23:00,
2013-11-01 00:42:00,46.0,39.0,29.64,North,360,4.0,9.0,75,0.00,,,0.00,,2013-11-01 05:42:00,
2013-11-01 00:53:00,46.0,39.0,29.64,NNW,348,3.0,7.0,76,0.00,,,0.00,,2013-11-01 05:53:00,
2013-11-01 01:12:00,46.0,39.0,29.65,North,5,3.0,8.0,75,0.00,,,0.00,,2013-11-01 06:12:00,
2013-11-01 01:22:00,45.0,38.0,29.65,North,355,2.0,7.0,76,0.00,,,0.00,,2013-11-01 06:22:00,
2013-11-01 01:42:00,44.0,38.0,29.65,NNE,27,2.0,6.0,78,0.00,,,0.00,,2013-11-01 06:42:00,
2013-11-01 01:52:00,44.0,38.0,29.65,NNE,15,2.0,5.0,78,0.00,,,0.00,,2013-11-01 06:52:00,
2013-11-01 02:12:00,44.0,38.0,29.65,NNE,13,1.0,4.0,78,0.00,,,0.00,,2013-11-01 07:12:00,
2013-11-01 02:21:00,42.0,37.0,29.65,NNE,16,0.0,3.0,81,0.00,,,0.00,,2013-11-01 07:21:00,
2013-11-01 02:42:00,41.0,37.0,29.66,WNW,300,2.0,6.0,84,0.00,,,0.00,,2013-11-01 07:42:00,
2013-11-01 02:52:00,41.0,37.0,29.66,North,355,1.0,5.0,85,0.00,,,0.00,,2013-11-01 07:52:00,
2013-11-01 03:12:00,41.0,37.0,29.66,NNW,333,2.0,4.0,84,0.00,,,0.00,,2013-11-01 08:12:00,
2013-11-01 03:21:00,40.0,36.0,29.67,NNW,336,2.0,5.0,86,0.00,,,0.00,,2013-11-01 08:21:00,
2013-11-01 03:42:00,41.0,37.0,29.66,NNW,331,3.0,7.0,84,0.00,,,0.00,,2013-11-01 08:42:00,
2013-11-01 03:52:00,39.0,35.0,29.67,NW,313,2.0,4.0,86,0.00,,,0.00,,2013-11-01 08:52:00,
2013-11-01 04:11:00,39.0,35.0,29.67,NNW,340,3.0,6.0,87,0.00,,,0.00,,2013-11-01 09:11:00,
2013-11-01 04:21:00,39.0,35.0,29.67,North,5,2.0,7.0,87,0.00,,,0.00,,2013-11-01 09:21:00,
2013-11-01 04:43:00,40.0,36.0,29.68,NNW,330,2.0,6.0,85,0.00,,,0.00,,2013-11-01 09:43:00,
2013-11-01 04:53:00,41.0,36.0,29.68,NNW,348,4.0,8.0,83,0.00,,,0.00,,2013-11-01 09:53:00,
2013-11-01 05:23:00,41.0,36.0,29.69,NNE,13,3.0,8.0,82,0.00,,,0.00,,2013-11-01 10:23:00,
2013-11-01 05:52:00,40.0,35.0,29.70,North,5,2.0,6.0,83,0.00,,,0.00,,2013-11-01 10:52:00,
2013-11-01 06:12:00,40.0,35.0,29.70,North,11,2.0,4.0,83,0.00,,,0.00,,2013-11-01 11:12:00,
2013-11-01 06:22:00,40.0,35.0,29.71,North,11,1.0,4.0,83,0.00,,,0.00,,2013-11-01 11:22:00,
2013-11-01 06:42:00,40.0,36.0,29.72,NNW,327,1.0,5.0,84,0.00,,,0.00,,2013-11-01 11:42:00,
2013-11-01 06:52:00,40.0,36.0,29.72,North,11,2.0,5.0,85,0.00,,,0.00,,2013-11-01 11:52:00,
2013-11-01 07:12:00,40.0,36.0,29.72,North,351,5.0,8.0,84,0.00,,,0.00,,2013-11-01 12:12:00,
2013-11-01 07:22:00,40.0,36.0,29.73,North,355,3.0,8.0,84,0.00,,,0.00,,2013-11-01 12:22:00,
2013-11-01 07:42:00,40.0,36.0,29.73,North,5,3.0,6.0,84,0.00,,,0.00,,2013-11-01 12:42:00,
2013-11-01 07:52:00,39.0,35.0,29.74,North,355,2.0,5.0,85,0.00,,,0.00,,2013-11-01 12:52:00,
2013-11-01 08:12:00,38.0,34.0,29.75,North,9,2.0,7.0,86,0.00,,,0.00,,2013-11-01 13:12:00,
2013-11-01 08:22:00,38.0,34.0,29.76,NNE,13,3.0,6.0,86,0.00,,,0.00,,2013-11-01 13:22:00,
2013-11-01 08:42:00,39.0,35.0,29.76,NNE,15,2.0,5.0,87,0.00,,,0.00,,2013-11-01 13:42:00,
2013-11-01 08:52:00,40.0,36.0,29.77,North,350,4.0,8.0,86,0.00,,,0.00,,2013-11-01 13:52:00,
2013-11-01 09:22:00,42.0,38.0,29.79,North,5,2.0,8.0,85,0.00,,,0.00,,2013-11-01 14:22:00,
2013-11-01 09:42:00,43.0,38.0,29.80,North,5,3.0,7.0,84,0.00,,,0.00,,2013-11-01 14:42:00,
2013-11-01 09:52:00,44.0,39.0,29.80,NNW,344,4.0,9.0,82,0.00,,,0.00,,2013-11-01 14:52:00,
2013-11-01 10:21:00,45.0,40.0,29.81,NNE,13,4.0,7.0,81,0.00,,,0.00,,2013-11-01 15:21:00,
2013-11-01 10:43:00,46.0,41.0,29.82,NNE,17,4.0,8.0,81,0.00,,,0.00,,2013-11-01 15:43:00,
2013-11-01 10:54:00,48.0,41.0,29.82,NW,319,7.0,12.0,77,0.00,,,0.00,,2013-11-01 15:54:00,
2013-11-01 11:12:00,49.0,41.0,29.83,North,355,7.0,12.0,75,0.00,,,0.00,,2013-11-01 16:12:00,
2013-11-01 11:23:00,50.0,42.0,29.83,North,351,8.0,13.0,74,0.00,,,0.00,,2013-11-01 16:23:00,
2013-11-01 11:43:00,50.0,42.0,29.83,North,355,7.0,13.0,74,0.00,,,0.00,,2013-11-01 16:43:00,
2013-11-01 11:53:00,52.0,44.0,29.83,NW,326,8.0,17.0,73,0.00,,,0.00,,2013-11-01 16:53:00,
2013-11-01 12:12:00,52.0,43.0,29.83,NNW,338,7.0,16.0,72,0.00,,,0.00,,2013-11-01 17:12:00,
2013-11-01 12:22:00,53.0,43.0,29.84,North,355,8.0,16.0,69,0.00,,,0.00,,2013-11-01 17:22:00,
2013-11-01 12:43:00,55.0,43.0,29.84,NNW,342,9.0,16.0,63,0.00,,,0.00,,2013-11-01 17:43:00,
2013-11-01 12:52:00,56.0,43.0,29.84,NNW,348,7.0,16.0,61,0.00,,,0.00,,2013-11-01 17:52:00,
2013-11-01 13:12:00,57.0,43.0,29.84,NNE,17,6.0,16.0,59,0.00,,,0.00,,2013-11-01 18:12:00,
2013-11-01 13:22:00,58.0,42.0,29.84,North,9,7.0,16.0,56,0.00,,,0.00,,2013-11-01 18:22:00,
2013-11-01 13:52:00,58.0,40.0,29.83,North,349,9.0,18.0,52,0.00,,,0.00,,2013-11-01 18:52:00,
2013-11-01 14:21:00,58.0,39.0,29.83,NNW,345,9.0,17.0,50,0.00,,,0.00,,2013-11-01 19:21:00,
2013-11-01 14:52:00,60.0,40.0,29.83,ENE,72,8.0,14.0,48,0.00,,,0.00,,2013-11-01 19:52:00,
2013-11-01 15:12:00,60.0,39.0,29.83,NNE,26,8.0,17.0,46,0.00,,,0.00,,2013-11-01 20:12:00,
2013-11-01 15:22:00,61.0,40.0,29.84,North,360,7.0,16.0,45,0.00,,,0.00,,2013-11-01 20:22:00,
2013-11-01 15:42:00,60.0,37.0,29.83,North,351,8.0,14.0,43,0.00,,,0.00,,2013-11-01 20:42:00,
2013-11-01 15:52:00,59.0,41.0,29.83,NNE,27,6.0,17.0,51,0.00,,,0.00,,2013-11-01 20:52:00,
2013-11-01 16:11:00,58.0,41.0,29.84,NNE,17,6.0,10.0,53,0.00,,,0.00,,2013-11-01 21:11:00,
2013-11-01 16:22:00,57.0,38.0,29.84,North,9,7.0,15.0,49,0.00,,,0.00,,2013-11-01 21:22:00,
2013-11-01 16:43:00,56.0,38.0,29.84,NNW,346,7.0,13.0,51,0.00,,,0.00,,2013-11-01 21:43:00,
2013-11-01 16:55:00,58.0,38.0,29.84,NW,322,7.0,14.0,48,0.00,,,0.00,,2013-11-01 21:55:00,
2013-11-01 17:24:00,58.0,39.0,29.85,NNW,345,5.0,12.0,50,0.00,,,0.00,,2013-11-01 22:24:00,
2013-11-01 17:42:00,55.0,40.0,29.85,North,355,4.0,11.0,56,0.00,,,0.00,,2013-11-01 22:42:00,
2013-11-01 17:53:00,52.0,40.0,29.88,NE,35,9.0,27.0,64,0.00,,,0.00,,2013-11-01 22:53:00,
2013-11-01 18:22:00,48.0,42.0,29.89,NNE,13,4.0,9.0,79,0.01,,,0.01,,2013-11-01 23:22:00,
2013-11-01 18:42:00,47.0,41.0,29.90,North,5,4.0,9.0,79,0.01,,,0.01,,2013-11-01 23:42:00,
2013-11-01 18:53:00,47.0,41.0,29.91,NNE,14,4.0,9.0,79,0.01,,,0.01,,2013-11-01 23:53:00,
2013-11-01 19:11:00,46.0,40.0,29.91,North,360,3.0,6.0,79,0.00,,,0.01,,2013-11-02 00:11:00,
2013-11-01 19:22:00,45.0,40.0,29.92,NNW,348,4.0,8.0,82,0.00,,,0.01,,2013-11-02 00:22:00,
2013-11-01 19:42:00,46.0,40.0,29.93,North,355,7.0,12.0,80,0.00,,,0.01,,2013-11-02 00:42:00,
2013-11-01 19:52:00,46.0,40.0,29.93,North,355,5.0,11.0,79,0.00,,,0.01,,2013-11-02 00:52:00,
2013-11-01 20:22:00,44.0,39.0,29.95,NNE,30,3.0,6.0,81,0.00,,,0.01,,2013-11-02 01:22:00,
2013-11-01 20:42:00,43.0,38.0,29.95,NNE,32,1.0,5.0,83,0.00,,,0.01,,2013-11-02 01:42:00,
2013-11-01 20:52:00,42.0,38.0,29.96,North,5,2.0,4.0,84,0.00,,,0.01,,2013-11-02 01:52:00,
2013-11-01 21:11:00,41.0,37.0,29.96,North,5,3.0,7.0,85,0.00,,,0.01,,2013-11-02 02:11:00,
2013-11-01 21:22:00,41.0,37.0,29.97,NNE,19,3.0,6.0,85,0.00,,,0.01,,2013-11-02 02:22:00,
2013-11-01 21:42:00,42.0,38.0,29.98,North,355,4.0,8.0,84,0.00,,,0.01,,2013-11-02 02:42:00,
2013-11-01 21:53:00,42.0,38.0,29.99,NNE,13,3.0,8.0,84,0.00,,,0.01,,2013-11-02 02:53:00,
2013-11-01 22:11:00,42.0,37.0,29.99,NE,38,5.0,11.0,82,0.00,,,0.01,,2013-11-02 03:11:00,
2013-11-01 22:22:00,42.0,37.0,30.00,North,5,4.0,9.0,81,0.00,,,0.01,,2013-11-02 03:22:00,
2013-11-01 22:44:00,43.0,38.0,30.00,NNE,19,3.0,11.0,81,0.00,,,0.01,,2013-11-02 03:44:00,
2013-11-01 22:53:00,43.0,38.0,30.01,NNE,22,3.0,8.0,81,0.00,,,0.01,,2013-11-02 03:53:00,
2013-11-01 23:13:00,43.0,38.0,30.01,NNE,13,3.0,6.0,81,0.00,,,0.01,,2013-11-02 04:13:00,
2013-11-01 23:24:00,44.0,38.0,30.01,North,5,5.0,9.0,80,0.00,,,0.01,,2013-11-02 04:24:00,
2013-11-01 23:43:00,44.0,38.0,30.01,NNE,19,4.0,10.0,78,0.00,,,0.01,,2013-11-02 04:43:00,
2013-11-01 23:54:00,43.0,37.0,30.02,North,5,3.0,9.0,79,0.00,,,0.01,,2013-11-02 04:54:00,